When you browse on this site, cookies collect data to enhance your experience and personalize the content and advertising you see.
Visit our Privacy Policy to learn more. By continuing to use the site, you agree to this use of cookies and data.
  • In Spain
  • List of Countries
  • For 7 days
  • Water Temperature
  • Satellite Maps
  • Weather Map
  • Weather Widgets
  • user-avatar
    Login

    Hourly Weather Bregenz

    Today, 22 April, Monday

    Time Temperature Precipitation Wind Pressure Humidity
    00:00 +4°C° 0 mm 3 mps 645 mmHg 62%
    01:00 +5°C° 0 mm 3 mps 645 mmHg 57%
    02:00 +4°C° 0 mm 3 mps 644 mmHg 59%
    03:00 +4°C° 0 mm 3 mps 644 mmHg 61%
    04:00 +4°C° 0 mm 2 mps 643 mmHg 64%
    05:00 +5°C° 0 mm 2 mps 643 mmHg 63%
    06:00 +5°C° 0 mm 2 mps 643 mmHg 61%
    07:00 +7°C° 0 mm 2 mps 643 mmHg 60%
    08:00 +9°C° 0 mm 2 mps 643 mmHg 53%
    09:00 +12°C° 0 mm 2 mps 643 mmHg 46%
    10:00 +15°C° 0 mm 2 mps 643 mmHg 39%
    11:00 +16°C° 0 mm 2 mps 643 mmHg 36%
    12:00 +17°C° 0 mm 2 mps 643 mmHg 34%
    13:00 +18°C° 0 mm 2 mps 643 mmHg 31%
    14:00 +18°C° 0 mm 2 mps 642 mmHg 33%
    15:00 +17°C° 0 mm 2 mps 642 mmHg 36%
    16:00 +17°C° 0 mm 2 mps 641 mmHg 38%
    17:00 +15°C° 0 mm 2 mps 640 mmHg 46%
    18:00 +13°C° 0 mm 2 mps 639 mmHg 54%
    19:00 +10°C° 0 mm 2 mps 638 mmHg 63%
    20:00 +9°C° 0 mm 2 mps 638 mmHg 62%
    21:00 +8°C° 0 mm 3 mps 638 mmHg 62%
    22:00 +7°C° 0 mm 3 mps 638 mmHg 62%
    23:00 +7°C° 0 mm 3 mps 637 mmHg 62%

    Tomorrow, 23 April, Tuesday

    Time Temperature Precipitation Wind Pressure Humidity
    00:00 +7°C° 0 mm 3 mps 637 mmHg 63%
    01:00 +5°C° 0 mm 3 mps 637 mmHg 63%
    02:00 +6°C° 0 mm 2 mps 637 mmHg 64%
    03:00 +6°C° 0 mm 2 mps 636 mmHg 66%
    04:00 +6°C° 0 mm 2 mps 636 mmHg 68%
    05:00 +6°C° 0 mm 2 mps 636 mmHg 69%
    06:00 +7°C° 0 mm 2 mps 636 mmHg 70%
    07:00 +7°C° 0 mm 2 mps 636 mmHg 71%
    08:00 +8°C° 0 mm 2 mps 636 mmHg 66%
    09:00 +10°C° 0 mm 2 mps 636 mmHg 61%
    10:00 +12°C° 0 mm 2 mps 636 mmHg 56%
    11:00 +14°C° 0 mm 1 mps 637 mmHg 52%
    12:00 +15°C° 0 mm 1 mps 637 mmHg 48%
    13:00 +18°C° 0 mm 1 mps 637 mmHg 43%
    14:00 +16°C° 0 mm 1 mps 637 mmHg 45%
    15:00 +16°C° 0 mm 1 mps 637 mmHg 46%
    16:00 +16°C° 0 mm 2 mps 637 mmHg 47%
    17:00 +14°C° 0 mm 2 mps 637 mmHg 53%
    18:00 +12°C° 0 mm 2 mps 636 mmHg 59%
    19:00 +10°C° 0 mm 2 mps 636 mmHg 65%
    20:00 +9°C° 0 mm 2 mps 636 mmHg 66%
    21:00 +8°C° 0 mm 3 mps 636 mmHg 67%
    22:00 +5°C° 0 mm 3 mps 636 mmHg 68%
    23:00 +5°C° 0 mm 3 mps 637 mmHg 68%

    Day after tomorrow, 24 April, Wednesday

    Time Temperature Precipitation Wind Pressure Humidity
    00:00 +5°C° 0 mm 3 mps 637 mmHg 69%
    01:00 +5°C° 0 mm 3 mps 637 mmHg 69%
    02:00 +5°C° 0 mm 3 mps 637 mmHg 70%
    03:00 +6°C° 0 mm 2 mps 638 mmHg 70%
    04:00 +5°C° 0 mm 2 mps 638 mmHg 70%
    05:00 +6°C° 0 mm 2 mps 638 mmHg 69%
    06:00 +7°C° 0 mm 2 mps 639 mmHg 68%
    07:00 +7°C° 0 mm 2 mps 639 mmHg 67%
    08:00 +10°C° 0 mm 2 mps 640 mmHg 60%
    09:00 +12°C° 0 mm 3 mps 641 mmHg 53%
    10:00 +14°C° 0 mm 3 mps 642 mmHg 47%
    11:00 +16°C° 0 mm 3 mps 642 mmHg 43%
    12:00 +17°C° 0 mm 4 mps 642 mmHg 40%
    13:00 +16°C° 0 mm 5 mps 643 mmHg 37%
    14:00 +17°C° 0 mm 4 mps 643 mmHg 38%
    15:00 +17°C° 0 mm 4 mps 643 mmHg 38%
    16:00 +17°C° 0 mm 4 mps 643 mmHg 39%
    17:00 +14°C° 0 mm 4 mps 643 mmHg 48%
    18:00 +12°C° 0 mm 4 mps 642 mmHg 58%
    19:00 +8°C° 0 mm 4 mps 642 mmHg 67%
    20:00 +8°C° 0 mm 3 mps 643 mmHg 72%
    21:00 +7°C° 0 mm 3 mps 643 mmHg 77%
    22:00 +6°C° 0 mm 2 mps 643 mmHg 82%
    23:00 +6°C° 0 mm 2 mps 643 mmHg 81%

    25 April, Thursday

    Time Temperature Precipitation Wind Pressure Humidity
    00:00 +6°C° 0 mm 2 mps 643 mmHg 80%
    01:00 +5°C° 0 mm 2 mps 643 mmHg 79%
    02:00 +5°C° 0 mm 2 mps 643 mmHg 77%
    03:00 +4°C° 0 mm 3 mps 643 mmHg 75%
    04:00 +4°C° 0 mm 3 mps 643 mmHg 74%
    05:00 +5°C° 0 mm 3 mps 643 mmHg 70%
    06:00 +7°C° 0 mm 3 mps 643 mmHg 67%
    07:00 +8°C° 0 mm 3 mps 643 mmHg 64%
    08:00 +10°C° 0 mm 3 mps 644 mmHg 56%
    09:00 +12°C° 0 mm 3 mps 644 mmHg 49%
    10:00 +14°C° 0 mm 4 mps 645 mmHg 41%
    11:00 +15°C° 0 mm 4 mps 645 mmHg 39%
    12:00 +17°C° 0 mm 4 mps 645 mmHg 37%
    13:00 +18°C° 0 mm 4 mps 645 mmHg 35%
    14:00 +17°C° 0 mm 4 mps 645 mmHg 37%
    15:00 +17°C° 0 mm 4 mps 645 mmHg 39%
    16:00 +17°C° 0 mm 4 mps 645 mmHg 41%
    17:00 +14°C° 0 mm 3 mps 645 mmHg 48%
    18:00 +12°C° 0 mm 3 mps 644 mmHg 54%
    19:00 +10°C° 0 mm 3 mps 644 mmHg 60%
    20:00 +9°C° 0 mm 3 mps 644 mmHg 64%
    21:00 +8°C° 0 mm 3 mps 644 mmHg 68%
    22:00 +6°C° 0 mm 2 mps 644 mmHg 72%
    23:00 +6°C° 0 mm 2 mps 644 mmHg 76%

    26 April, Friday

    Time Temperature Precipitation Wind Pressure Humidity
    00:00 +6°C° 0 mm 1 mps 644 mmHg 80%
    01:00 +6°C° 0 mm 1 mps 644 mmHg 84%
    02:00 +5°C° 0 mm 1 mps 644 mmHg 86%
    03:00 +5°C° 0 mm 1 mps 644 mmHg 89%
    04:00 +4°C° 0 mm 1 mps 644 mmHg 91%
    05:00 +3°C° 1.2 mm 2 mps 644 mmHg 92%
    06:00 +3°C° 1.2 mm 2 mps 644 mmHg 92%
    07:00 +2°C° 1.2 mm 3 mps 645 mmHg 93%
    08:00 +1°C° 1.9 mm 3 mps 645 mmHg 94%
    09:00 +2°C° 1.9 mm 2 mps 645 mmHg 94%
    10:00 +1°C° 1.9 mm 2 mps 645 mmHg 94%
    11:00 +1°C° 1.2 mm 2 mps 645 mmHg 93%
    12:00 +2°C° 1.2 mm 2 mps 646 mmHg 91%
    13:00 +3°C° 1.2 mm 1 mps 646 mmHg 89%
    14:00 +3°C° 0.6 mm 1 mps 646 mmHg 89%
    15:00 +4°C° 0.6 mm 1 mps 646 mmHg 88%
    16:00 +4°C° 0.6 mm 1 mps 647 mmHg 88%
    17:00 +3°C° 0.2 mm 1 mps 647 mmHg 89%
    18:00 +3°C° 0.2 mm 1 mps 647 mmHg 91%
    19:00 +3°C° 0.2 mm 1 mps 647 mmHg 92%
    20:00 +2°C° 0.4 mm 1 mps 647 mmHg 92%
    21:00 +2°C° 0.4 mm 1 mps 648 mmHg 92%
    22:00 +2°C° 0.4 mm 1 mps 648 mmHg 92%
    23:00 +1°C° 0.4 mm 1 mps 648 mmHg 92%

    27 April, Saturday

    Time Temperature Precipitation Wind Pressure Humidity
    00:00 +1°C° 0.4 mm 1 mps 648 mmHg 93%
    01:00 +1°C° 0.4 mm 1 mps 648 mmHg 93%
    02:00 +1°C° 0.4 mm 1 mps 648 mmHg 94%
    03:00 +1°C° 0.4 mm 1 mps 649 mmHg 94%
    04:00 +1°C° 0.4 mm 1 mps 649 mmHg 95%
    05:00 +2°C° 0.3 mm 1 mps 649 mmHg 95%
    06:00 +2°C° 0.3 mm 1 mps 650 mmHg 95%
    07:00 +2°C° 0.3 mm 1 mps 650 mmHg 94%
    08:00 +3°C° 0.3 mm 1 mps 650 mmHg 93%
    09:00 +4°C° 0.3 mm 1 mps 650 mmHg 92%
    10:00 +3°C° 0.3 mm 2 mps 651 mmHg 91%
    11:00 +4°C° 0.2 mm 2 mps 651 mmHg 87%
    12:00 +5°C° 0.2 mm 2 mps 651 mmHg 82%
    13:00 +7°C° 0.2 mm 2 mps 651 mmHg 78%
    14:00 +7°C° 0.2 mm 2 mps 651 mmHg 77%
    15:00 +7°C° 0.2 mm 2 mps 651 mmHg 76%
    16:00 +7°C° 0.2 mm 2 mps 651 mmHg 75%
    17:00 +6°C° 0.2 mm 2 mps 651 mmHg 80%
    18:00 +6°C° 0.2 mm 1 mps 651 mmHg 85%
    19:00 +5°C° 0.2 mm 1 mps 651 mmHg 90%
    20:00 +4°C° 0 mm 1 mps 652 mmHg 91%
    21:00 +4°C° 0 mm 1 mps 652 mmHg 92%
    22:00 +3°C° 0 mm 1 mps 653 mmHg 94%
    23:00 +3°C° 0 mm 1 mps 652 mmHg 94%
    Show more